Flag for Canada Weather past 2 weeks in Strathcona County, Alberta, Canada

Now
59 °F

Mostly cloudy.


Feels Like: 58 °F
Forecast: 52 / 65 °F
Wind: 6 mph from Northwest

Location: Edmonton Municipal

Current Time: Sep 18, 2014 at 10:35:54 AM

Latest Report: Sep 18, 2014 at 10:00 AM


Visibility: 9 mi

Pressure: 29.61 "Hg

Humidity: 72%

Dew point: 50 °F

Location of Strathcona CountyLocation

Historic Weather in Strathcona County — Graph

°F

Strathcona County temperature yesterday

Maximum temperature yesterday: 79 °F (at 4:00 PM)
Minimum temperature yesterday: 45 °F (at 6:00 AM)
Average temperature yesterday: 61 °F

Past Weeks' High & Low Weather Summary

 TemperatureHumidityPressure
High79 °F (Sep 16, 3:00 PM)100% (Sep 7, 6:50 PM)30.66 "Hg (Sep 7, 6:50 PM)
Low28 °F (Sep 11, 4:00 AM)29% (Sep 11, 5:00 PM)29.55 "Hg (Sep 18, 5:00 AM)
Average51 °F70%30.10 "Hg
* Reported Sep 3 9:00 AM — Sep 18 9:00 AM, Strathcona County, Weather by CustomWeather, © 2014

Note: Actual official high and low records may vary slightly from our data, if they occured in-between our weather recording intervals... More about our weather records

Advertising

Strathcona County weather history for previous 24 hours

 ConditionsComfort  
Time TempWeatherWind HumidityBarometerVisibility
9:00 AM
Sep 18
61 °FPartly sunny.8 mph63%29.58 "Hg9 mi
8:00 AM59 °FOvercast.7 mph68%29.56 "Hg9 mi
7:00 AM57 °FPassing clouds.10 mph72%29.57 "Hg9 mi
6:00 AM57 °FClear.7 mph77%29.56 "Hg9 mi
5:00 AM57 °FClear.2 mph72%29.55 "Hg9 mi
4:00 AM54 °FClear.5 mph82%29.55 "Hg9 mi
3:00 AM55 °FClear.No wind77%29.55 "Hg9 mi
2:00 AM57 °FClear.6 mph72%29.56 "Hg9 mi
1:00 AM57 °FClear.5 mph77%29.58 "Hg9 mi
12:00 AM61 °FClear.5 mph68%29.60 "Hg9 mi
11:00 PM
Sep 17
59 °FClear.No wind72%29.61 "Hg9 mi
10:00 PM59 °FClear.No wind72%29.63 "Hg9 mi
9:00 PM61 °FClear.2 mph68%29.65 "Hg9 mi
8:00 PM64 °FSunny.2 mph56%29.65 "Hg9 mi
7:00 PM73 °FSunny.6 mph41%29.65 "Hg9 mi
6:00 PM75 °FSunny.9 mph39%29.65 "Hg9 mi
5:00 PM77 °FSunny.12 mph36%29.66 "Hg9 mi
4:00 PM79 °FSunny.10 mph34%29.67 "Hg9 mi
3:00 PM77 °FSunny.7 mph44%29.70 "Hg9 mi
2:00 PM75 °FSunny.10 mph41%29.73 "Hg9 mi
1:00 PM72 °FSunny.3 mph47%29.75 "Hg9 mi
12:00 PM68 °FSunny.5 mph53%29.77 "Hg9 mi
11:00 AM63 °FSunny.No wind59%29.79 "Hg9 mi
10:00 AM57 °FSunny.No wind72%29.81 "Hg9 mi
Weather by CustomWeather, © 2014

See weather overviewHow to use our weather pages